Weather History for Grosse Ile, MI

Change the Weather History Date:

Saturday, February 22, 2014

  Actual Average (KDTW) Record (KDTW)
Temperature  
Mean Temperature 34 °F 30 °F  
Max Temperature 37 °F 37 °F 65 °F (1930)
Min Temperature 32 °F 22 °F -5 °F (1907)
Degree Days  
Heating Degree Days 30 35  
Month to date heating degree days 826  
Since 1 July heating degree days 4346  
Cooling Degree Days 0 0  
Month to date cooling degree days 0  
Year to date cooling degree days 0  
Moisture  
Dew Point 20 °F    
Average Humidity 57    
Maximum Humidity 87    
Minimum Humidity 32    
Precipitation  
Precipitation 0.00 in 0.08 in 2.28 in (1990)
Month to date precipitation 1.55  
Year to date precipitation 3.51  
Snow  
Snow 0.00 in 0.40 in 6.40 in (2010)
Month to date snowfall 8.1  
Since 1 July snowfall 31.8  
Snow Depth -    
Sea Level Pressure  
Sea Level Pressure 29.89 in    
Wind  
Wind Speed 13 mph (WSW)    
Max Wind Speed 23 mph    
Max Gust Speed 33 mph    
Visibility 10 miles    
Events Snow    
T = Trace of Precipitation, MM = Missing Value Source: NWS Daily Summary

Daily Weather History Graph

Daily Weather History Graph

Search for Another Location

Airport:

Trip Planner

Search our weather history database for the weather conditions in past years. The results will help you decide how hot, cold, wet, or windy it might be!

Date:

Astronomy

Feb. 22, 2014 Rise Set
Actual Time 7:18 AM EST 6:14 PM EST
Civil Twilight 6:50 AM EST 6:42 PM EST
Nautical Twilight 6:17 AM EST 7:15 PM EST
Astronomical Twilight 5:45 AM EST 7:47 PM EST
Moon 1:15 AM EST (2/22) 11:21 AM EST (2/22)
Length of Visible Light 11h 52m
Length of Day
10h 55m
Waning Gibbous, 50% of the Moon is Illuminated
Feb 22
Waning Gibbous
Feb 22
Last Quarter
Mar 1
New
Mar 8
First Quarter
Mar 16
Full

Hourly Weather History & Observations

Time (EST) Temp. Windchill Dew Point Humidity Pressure Visibility Wind Dir Wind Speed Gust Speed Precip Events Conditions
12:14 AM 37.4 °F 27.5 °F 23.0 °F 56% 29.79 in 10.0 mi SW 18.4 mph 27.6 mph N/A   Overcast
12:34 AM 37.4 °F 27.5 °F 24.8 °F 60% 29.79 in 10.0 mi SW 18.4 mph 25.3 mph N/A   Overcast
12:55 AM 37.4 °F 28.2 °F 24.8 °F 60% 29.79 in 10.0 mi WSW 16.1 mph 23.0 mph N/A   Overcast
1:14 AM 37.4 °F 27.8 °F 24.8 °F 60% 29.79 in 10.0 mi WSW 17.3 mph 25.3 mph N/A   Overcast
1:34 AM 37.4 °F 27.2 °F 26.6 °F 65% 29.80 in 10.0 mi WSW 19.6 mph 33.4 mph N/A   Overcast
1:55 AM 37.4 °F 27.5 °F 28.4 °F 70% 29.78 in 10.0 mi WSW 18.4 mph - N/A   Overcast
2:14 AM 37.4 °F 29.8 °F 30.2 °F 75% 29.77 in 10.0 mi WSW 11.5 mph - N/A   Overcast
2:34 AM 37.4 °F 29.3 °F 30.2 °F 75% 29.77 in 10.0 mi SW 12.7 mph 18.4 mph N/A   Overcast
2:54 AM 35.6 °F 29.2 °F 28.4 °F 75% 29.76 in 10.0 mi SW 8.1 mph - N/A   Overcast
3:14 AM 35.6 °F 29.2 °F 28.4 °F 75% 29.77 in 10.0 mi WSW 8.1 mph - N/A   Mostly Cloudy
3:34 AM 35.6 °F 30.7 °F 28.4 °F 75% 29.77 in 10.0 mi West 5.8 mph - N/A   Overcast
3:54 AM 35.6 °F 29.2 °F 28.4 °F 75% 29.76 in 7.0 mi West 8.1 mph - N/A   Overcast
4:14 AM 35.6 °F 29.2 °F 30.2 °F 81% 29.76 in 10.0 mi SW 8.1 mph - N/A Snow Light Snow
4:34 AM 33.8 °F 27.0 °F 30.2 °F 87% 29.75 in 10.0 mi SW 8.1 mph - N/A   Scattered Clouds
4:54 AM 33.8 °F 27.0 °F 30.2 °F 87% 29.75 in 10.0 mi SW 8.1 mph - N/A   Clear
5:14 AM 33.8 °F 27.7 °F 28.4 °F 81% 29.75 in 10.0 mi SW 6.9 mph - N/A   Clear
5:34 AM 33.8 °F 27.7 °F 28.4 °F 81% 29.76 in 10.0 mi SW 6.9 mph - N/A   Clear
5:54 AM 33.8 °F 27.0 °F 26.6 °F 75% 29.77 in 10.0 mi WSW 8.1 mph 16.1 mph N/A   Clear
6:14 AM 33.8 °F 26.4 °F 26.6 °F 75% 29.79 in 10.0 mi WSW 9.2 mph 18.4 mph N/A   Clear
6:34 AM 33.8 °F 25.3 °F 24.8 °F 70% 29.80 in 10.0 mi WSW 11.5 mph 20.7 mph N/A   Clear
6:54 AM 33.8 °F 23.5 °F 23.0 °F 65% 29.81 in 10.0 mi WSW 16.1 mph 23.0 mph N/A   Clear
7:15 AM 33.8 °F 23.5 °F 21.2 °F 60% 29.83 in 10.0 mi WSW 16.1 mph 20.7 mph N/A   Clear
7:34 AM 33.8 °F 23.9 °F 21.2 °F 60% 29.83 in 10.0 mi WSW 15.0 mph 18.4 mph N/A   Clear
7:54 AM 33.8 °F 23.5 °F 17.6 °F 52% 29.86 in 10.0 mi WSW 16.1 mph 21.9 mph N/A   Clear
8:14 AM 32.0 °F 21.6 °F 12.2 °F 44% 29.86 in 10.0 mi WSW 15.0 mph 25.3 mph N/A   Clear
8:34 AM 33.8 °F 23.9 °F 15.8 °F 48% 29.88 in 10.0 mi WSW 15.0 mph 24.2 mph N/A   Clear
8:54 AM 33.8 °F 22.8 °F 8.6 °F 35% 29.89 in 10.0 mi West 18.4 mph 31.1 mph N/A   Clear
9:14 AM 32.0 °F 20.8 °F 6.8 °F 35% 29.89 in 10.0 mi WSW 17.3 mph 28.8 mph N/A   Clear
9:34 AM 32.0 °F 21.2 °F 6.8 °F 35% 29.90 in 10.0 mi WSW 16.1 mph 27.6 mph N/A   Clear
9:54 AM 32.0 °F 21.2 °F 6.8 °F 35% 29.90 in 10.0 mi WSW 16.1 mph 25.3 mph N/A   Clear
10:14 AM 33.8 °F 24.3 °F 6.8 °F 32% 29.90 in 10.0 mi WSW 13.8 mph 25.3 mph N/A   Clear
10:34 AM 33.8 °F 22.2 °F 8.6 °F 35% 29.91 in 10.0 mi WSW 20.7 mph 25.3 mph N/A   Clear
10:54 AM 33.8 °F 22.8 °F 8.6 °F 35% 29.92 in 10.0 mi WSW 18.4 mph 26.5 mph N/A   Clear
11:14 AM 33.8 °F 22.2 °F 8.6 °F 35% 29.92 in 10.0 mi WSW 20.7 mph 31.1 mph N/A   Clear
11:34 AM 33.8 °F 22.5 °F 10.4 °F 38% 29.94 in 10.0 mi WSW 19.6 mph 29.9 mph N/A   Clear
11:54 AM 35.6 °F 25.2 °F 10.4 °F 35% 29.94 in 10.0 mi WSW 18.4 mph 24.2 mph N/A   Clear
12:14 PM 35.6 °F 25.5 °F 10.4 °F 35% 29.95 in 10.0 mi WSW 17.3 mph 21.9 mph N/A   Clear
12:34 PM 35.6 °F 24.0 °F 10.4 °F 35% 29.95 in 10.0 mi WSW 23.0 mph 28.8 mph N/A   Scattered Clouds
12:55 PM 35.6 °F 26.2 °F 12.2 °F 38% 29.94 in 10.0 mi WSW 15.0 mph 25.3 mph N/A   Scattered Clouds
1:14 PM 35.6 °F 25.2 °F 10.4 °F 35% 29.93 in 10.0 mi WSW 18.4 mph 24.2 mph N/A   Clear
1:34 PM 35.6 °F 25.9 °F 12.2 °F 38% 29.94 in 10.0 mi WSW 16.1 mph 26.5 mph N/A   Scattered Clouds
1:54 PM 35.6 °F 28.6 °F 15.8 °F 44% 29.94 in 10.0 mi WSW 9.2 mph 19.6 mph N/A   Mostly Cloudy
2:14 PM 37.4 °F 30.3 °F 17.6 °F 45% 29.94 in 10.0 mi WSW 10.4 mph 25.3 mph N/A   Scattered Clouds
2:34 PM 37.4 °F 28.9 °F 17.6 °F 45% 29.94 in 10.0 mi SW 13.8 mph 20.7 mph N/A   Clear
2:54 PM 37.4 °F 29.3 °F 17.6 °F 45% 29.94 in 10.0 mi WSW 12.7 mph 20.7 mph N/A   Clear
3:14 PM 37.4 °F 29.8 °F 15.8 °F 41% 29.94 in 10.0 mi WSW 11.5 mph 20.7 mph N/A   Scattered Clouds
3:34 PM 37.4 °F 29.3 °F 15.8 °F 41% 29.94 in 10.0 mi WSW 12.7 mph 18.4 mph N/A   Scattered Clouds
3:54 PM 37.4 °F 29.8 °F 15.8 °F 41% 29.94 in 10.0 mi SW 11.5 mph 17.3 mph N/A   Scattered Clouds
4:14 PM 37.4 °F 28.9 °F 14.0 °F 38% 29.94 in 10.0 mi SW 13.8 mph 26.5 mph N/A   Mostly Cloudy
4:34 PM 37.4 °F 29.3 °F 17.6 °F 45% 29.94 in 10.0 mi SW 12.7 mph 19.6 mph N/A   Scattered Clouds
4:54 PM 35.6 °F 28.6 °F 19.4 °F 52% 29.94 in 10.0 mi SW 9.2 mph 16.1 mph N/A   Scattered Clouds
5:14 PM 35.6 °F 28.0 °F 17.6 °F 48% 29.94 in 10.0 mi WSW 10.4 mph 17.3 mph N/A   Scattered Clouds
5:34 PM 35.6 °F 27.5 °F 19.4 °F 52% 29.94 in 10.0 mi WSW 11.5 mph - N/A   Clear
5:54 PM 35.6 °F 28.6 °F 19.4 °F 52% 29.94 in 10.0 mi WSW 9.2 mph - N/A   Clear
6:14 PM 35.6 °F 28.0 °F 21.2 °F 56% 29.95 in 10.0 mi WSW 10.4 mph - N/A   Scattered Clouds
6:35 PM 35.6 °F 28.6 °F 21.2 °F 56% 29.95 in 10.0 mi SW 9.2 mph - N/A   Scattered Clouds
6:54 PM 35.6 °F 28.0 °F 21.2 °F 56% 29.95 in 10.0 mi SW 10.4 mph - N/A   Scattered Clouds
7:14 PM 35.6 °F 29.9 °F 21.2 °F 56% 29.95 in 10.0 mi WSW 6.9 mph - N/A   Scattered Clouds
7:35 PM 35.6 °F 29.9 °F 21.2 °F 56% 29.95 in 10.0 mi WSW 6.9 mph - N/A   Scattered Clouds
7:54 PM 35.6 °F 29.9 °F 21.2 °F 56% 29.95 in 10.0 mi SW 6.9 mph - N/A   Scattered Clouds
8:14 PM 35.6 °F 29.2 °F 21.2 °F 56% 29.96 in 10.0 mi SW 8.1 mph - N/A   Scattered Clouds
8:34 PM 35.6 °F 29.9 °F 23.0 °F 60% 29.96 in 10.0 mi SW 6.9 mph - N/A   Mostly Cloudy
8:54 PM 35.6 °F 29.9 °F 24.8 °F 65% 29.96 in 10.0 mi WSW 6.9 mph - N/A   Mostly Cloudy
9:14 PM 35.6 °F 30.7 °F 24.8 °F 65% 29.96 in 10.0 mi WSW 5.8 mph - N/A   Overcast
9:34 PM 33.8 °F 30.8 °F 24.8 °F 70% 29.97 in 10.0 mi SW 3.5 mph - N/A   Mostly Cloudy
9:54 PM 33.8 °F 28.6 °F 24.8 °F 70% 29.97 in 10.0 mi WSW 5.8 mph - N/A   Scattered Clouds
10:14 PM 33.8 °F 28.6 °F 26.6 °F 75% 29.97 in 10.0 mi WSW 5.8 mph - N/A   Mostly Cloudy
10:34 PM 33.8 °F 26.4 °F 26.6 °F 75% 29.97 in 10.0 mi West 9.2 mph - N/A   Mostly Cloudy
10:54 PM 33.8 °F 26.4 °F 26.6 °F 75% 29.97 in 10.0 mi WSW 9.2 mph - N/A   Mostly Cloudy
11:14 PM 33.8 °F 27.0 °F 26.6 °F 75% 29.96 in 10.0 mi West 8.1 mph - N/A   Mostly Cloudy
11:34 PM 33.8 °F 27.0 °F 26.6 °F 75% 29.95 in 10.0 mi WSW 8.1 mph - N/A   Mostly Cloudy
11:54 PM 33.8 °F 27.7 °F 24.8 °F 70% 29.95 in 10.0 mi West 6.9 mph - N/A   Mostly Cloudy